COSMOS 1814

导读

COSMOS 1814(宇宙1814)是苏联(CIS)于1987年1月21日发射的人造卫星,隶属于世界上规模最大的宇宙号卫星家族。宇宙号系列多为军用卫星,该卫星进入近地轨道运行,轨道高度约740-783千米,倾角74.1°,作为冷战期间苏联航天发射活动的一部分,承担相关空间任务,至今仍沿固定轨道绕地运行。

Basic Information
目录编号:
17303
目录名称:
COSMOS 1814
国际标识:
1987-006A
轨道中心:
EARTH
卫星名称:
COSMOS 1814
卫星全名:
--
卫星状态:
在轨 (已飞行14390 天)
发射日期:
1987-01-21 UTC
国别 :
俄罗斯(独联体) (CIS)
星等 :
--
Orbit Information
数据来源 国际轨道数据 AOE轨道数据
星历时间 2026-06-14T23:30:14+0800
14小时前
查看轨道信息
2026-06-15T05:00:00+0800
8小时前
查看轨道信息
半长轴 7149.864km 7149.865km
偏心率 0.0024723 0.0025067
轨道倾角 74.056° 74.055°
近地点辐角 359.111° 358.596°
升交点赤经 262.279° 261.858°
平近点角 0.999° 104.908°
近地点 754.05km 753.805km
远地点 789.404km 789.651km
周期 100.278分钟 100.278分钟
每日圈数 14.360057 14.360053
Detailed Information
使用方式:
暂无
2D Orbit Map
3D Orbit Map
Orbit Altitude Analysis Chart
Orbit Inclination Analysis Chart
Orbit Comprehensive Analysis Chart
View Comprehensive Chart